When you browse on this site, cookies collect data to enhance your experience and personalize the content and advertising you see.
Visit our Privacy Policy to learn more. By continuing to use the site, you agree to this use of cookies and data.
  • în România
  • Lista ţărilor
  • Pe 7 zile
  • Temperatura apei
  • Hartă satelitară
  • Meteo pe hartă
  • Widget-uri
  • user-avatar
    Intrare

    Meteo pe oră la Krugloe

    Astăzi, 21 Ianuarie, Luni

    Timp Temperatura Precipitaţii Vânt Presiune Umiditate
    00:00 -13°C° 0 mm 3 m/s 738 mmHg 91%
    01:00 -13°C° 0 mm 2 m/s 738 mmHg 93%
    02:00 -14°C° 0 mm 2 m/s 738 mmHg 95%
    03:00 -14°C° 0 mm 2 m/s 738 mmHg 95%
    04:00 -14°C° 0 mm 2 m/s 738 mmHg 96%
    05:00 -14°C° 0 mm 2 m/s 738 mmHg 96%
    06:00 -15°C° 0 mm 2 m/s 738 mmHg 96%
    07:00 -15°C° 0 mm 2 m/s 739 mmHg 95%
    08:00 -15°C° 0 mm 2 m/s 739 mmHg 95%
    09:00 -15°C° 0 mm 3 m/s 739 mmHg 93%
    10:00 -14°C° 0 mm 3 m/s 739 mmHg 90%
    11:00 -15°C° 0 mm 4 m/s 740 mmHg 87%
    12:00 -14°C° 0.1 mm 3 m/s 740 mmHg 86%
    13:00 -14°C° 0.1 mm 3 m/s 740 mmHg 85%
    14:00 -14°C° 0.1 mm 3 m/s 740 mmHg 84%
    15:00 -15°C° 0 mm 3 m/s 740 mmHg 86%
    16:00 -16°C° 0 mm 3 m/s 741 mmHg 89%
    17:00 -16°C° 0 mm 2 m/s 741 mmHg 92%
    18:00 -18°C° 0 mm 3 m/s 741 mmHg 93%
    19:00 -19°C° 0 mm 3 m/s 741 mmHg 94%
    20:00 -21°C° 0 mm 3 m/s 742 mmHg 94%
    21:00 -21°C° 0 mm 3 m/s 742 mmHg 94%
    22:00 -21°C° 0 mm 3 m/s 742 mmHg 94%
    23:00 -21°C° 0 mm 3 m/s 742 mmHg 94%

    Mâine, 22 Ianuarie, Marţi

    Timp Temperatura Precipitaţii Vânt Presiune Umiditate
    00:00 -21°C° 0 mm 3 m/s 743 mmHg 94%
    01:00 -21°C° 0 mm 3 m/s 743 mmHg 93%
    02:00 -21°C° 0 mm 3 m/s 743 mmHg 93%
    03:00 -21°C° 0 mm 3 m/s 743 mmHg 93%
    04:00 -21°C° 0 mm 3 m/s 744 mmHg 94%
    05:00 -21°C° 0 mm 3 m/s 744 mmHg 95%
    06:00 -22°C° 0 mm 3 m/s 744 mmHg 95%
    07:00 -22°C° 0 mm 3 m/s 745 mmHg 95%
    08:00 -22°C° 0 mm 3 m/s 745 mmHg 96%
    09:00 -21°C° 0 mm 3 m/s 745 mmHg 95%
    10:00 -19°C° 0 mm 3 m/s 746 mmHg 94%
    11:00 -18°C° 0 mm 2 m/s 746 mmHg 93%
    12:00 -17°C° 0 mm 2 m/s 746 mmHg 93%
    13:00 -17°C° 0 mm 2 m/s 746 mmHg 93%
    14:00 -16°C° 0 mm 2 m/s 746 mmHg 93%
    15:00 -17°C° 0 mm 2 m/s 746 mmHg 94%
    16:00 -18°C° 0 mm 2 m/s 746 mmHg 95%
    17:00 -19°C° 0 mm 2 m/s 746 mmHg 96%
    18:00 -20°C° 0 mm 2 m/s 746 mmHg 96%
    19:00 -20°C° 0 mm 2 m/s 746 mmHg 96%
    20:00 -20°C° 0 mm 2 m/s 746 mmHg 95%
    21:00 -21°C° 0 mm 2 m/s 746 mmHg 95%
    22:00 -21°C° 0 mm 2 m/s 746 mmHg 95%
    23:00 -21°C° 0 mm 2 m/s 746 mmHg 94%

    Poimâine, 23 Ianuarie, Miercuri

    Timp Temperatura Precipitaţii Vânt Presiune Umiditate
    00:00 -21°C° 0 mm 2 m/s 746 mmHg 94%
    01:00 -23°C° 0 mm 2 m/s 746 mmHg 95%
    02:00 -23°C° 0 mm 2 m/s 746 mmHg 95%
    03:00 -23°C° 0 mm 2 m/s 746 mmHg 95%
    04:00 -23°C° 0 mm 2 m/s 746 mmHg 96%
    05:00 -23°C° 0 mm 2 m/s 745 mmHg 96%
    06:00 -23°C° 0 mm 2 m/s 746 mmHg 97%
    07:00 -23°C° 0 mm 2 m/s 746 mmHg 97%
    08:00 -23°C° 0 mm 2 m/s 746 mmHg 98%
    09:00 -20°C° 0 mm 2 m/s 746 mmHg 97%
    10:00 -18°C° 0 mm 2 m/s 746 mmHg 96%
    11:00 -16°C° 0 mm 2 m/s 746 mmHg 94%
    12:00 -15°C° 0 mm 3 m/s 745 mmHg 93%
    13:00 -13°C° 0 mm 3 m/s 745 mmHg 92%
    14:00 -12°C° 0 mm 3 m/s 745 mmHg 91%
    15:00 -10°C° 0 mm 3 m/s 745 mmHg 91%
    16:00 -10°C° 0 mm 3 m/s 745 mmHg 92%
    17:00 -10°C° 0 mm 3 m/s 745 mmHg 92%
    18:00 -10°C° 0 mm 3 m/s 744 mmHg 92%
    19:00 -10°C° 0 mm 3 m/s 744 mmHg 92%
    20:00 -10°C° 0 mm 3 m/s 744 mmHg 92%
    21:00 -12°C° 0 mm 3 m/s 744 mmHg 92%
    22:00 -12°C° 0 mm 3 m/s 744 mmHg 93%
    23:00 -13°C° 0 mm 3 m/s 744 mmHg 93%

    24 Ianuarie, Joi

    Timp Temperatura Precipitaţii Vânt Presiune Umiditate
    00:00 -14°C° 0 mm 3 m/s 744 mmHg 91%
    01:00 -15°C° 0 mm 3 m/s 744 mmHg 90%
    02:00 -16°C° 0 mm 3 m/s 744 mmHg 89%
    03:00 -16°C° 0 mm 3 m/s 744 mmHg 88%
    04:00 -16°C° 0 mm 3 m/s 744 mmHg 88%
    05:00 -16°C° 0 mm 3 m/s 743 mmHg 87%
    06:00 -16°C° 0.1 mm 3 m/s 744 mmHg 89%
    07:00 -15°C° 0.1 mm 2 m/s 744 mmHg 90%
    08:00 -14°C° 0.1 mm 2 m/s 744 mmHg 91%
    09:00 -14°C° 0 mm 2 m/s 744 mmHg 92%
    10:00 -13°C° 0 mm 2 m/s 744 mmHg 93%
    11:00 -12°C° 0 mm 2 m/s 745 mmHg 93%
    12:00 -12°C° 0 mm 2 m/s 745 mmHg 92%
    13:00 -12°C° 0 mm 3 m/s 745 mmHg 91%
    14:00 -10°C° 0 mm 3 m/s 746 mmHg 89%
    15:00 -13°C° 0 mm 3 m/s 746 mmHg 91%
    16:00 -14°C° 0 mm 2 m/s 747 mmHg 92%
    17:00 -15°C° 0 mm 2 m/s 747 mmHg 94%
    18:00 -17°C° 0 mm 2 m/s 748 mmHg 95%
    19:00 -19°C° 0 mm 2 m/s 748 mmHg 96%
    20:00 -20°C° 0 mm 2 m/s 749 mmHg 97%
    21:00 -21°C° 0 mm 2 m/s 749 mmHg 97%
    22:00 -20°C° 0 mm 1 m/s 750 mmHg 97%
    23:00 -20°C° 0 mm 1 m/s 750 mmHg 97%

    25 Ianuarie, Vineri

    Timp Temperatura Precipitaţii Vânt Presiune Umiditate
    00:00 -21°C° 0 mm 1 m/s 751 mmHg 96%
    01:00 -21°C° 0 mm 1 m/s 751 mmHg 96%
    02:00 -21°C° 0 mm 1 m/s 752 mmHg 95%
    03:00 -21°C° 0 mm 1 m/s 752 mmHg 95%
    04:00 -21°C° 0 mm 0 m/s 752 mmHg 94%
    05:00 -22°C° 0 mm 0 m/s 752 mmHg 93%
    06:00 -22°C° 0 mm 0 m/s 752 mmHg 93%
    07:00 -21°C° 0 mm 0 m/s 753 mmHg 92%
    08:00 -21°C° 0 mm 0 m/s 753 mmHg 91%
    09:00 -20°C° 0 mm 1 m/s 753 mmHg 90%
    10:00 -18°C° 0 mm 1 m/s 753 mmHg 89%
    11:00 -17°C° 0 mm 1 m/s 753 mmHg 88%
    12:00 -16°C° 0 mm 1 m/s 753 mmHg 88%
    13:00 -15°C° 0 mm 1 m/s 753 mmHg 89%
    14:00 -15°C° 0 mm 1 m/s 753 mmHg 89%
    15:00 -16°C° 0 mm 1 m/s 752 mmHg 90%
    16:00 -17°C° 0 mm 1 m/s 752 mmHg 90%
    17:00 -20°C° 0 mm 2 m/s 752 mmHg 91%
    18:00 -20°C° 0 mm 2 m/s 752 mmHg 91%
    19:00 -20°C° 0 mm 2 m/s 752 mmHg 90%
    20:00 -20°C° 0 mm 2 m/s 752 mmHg 90%
    21:00 -20°C° 0 mm 2 m/s 752 mmHg 90%
    22:00 -20°C° 0 mm 2 m/s 751 mmHg 90%
    23:00 -20°C° 0 mm 2 m/s 751 mmHg 89%

    26 Ianuarie, Sâmbătă

    Timp Temperatura Precipitaţii Vânt Presiune Umiditate
    00:00 -20°C° 0 mm 2 m/s 751 mmHg 90%
    01:00 -21°C° 0 mm 2 m/s 751 mmHg 90%
    02:00 -21°C° 0 mm 2 m/s 750 mmHg 90%
    03:00 -21°C° 0 mm 2 m/s 750 mmHg 90%
    04:00 -21°C° 0 mm 2 m/s 750 mmHg 90%
    05:00 -20°C° 0 mm 1 m/s 749 mmHg 90%
    06:00 -23°C° 0 mm 2 m/s 749 mmHg 90%
    07:00 -24°C° 0 mm 2 m/s 749 mmHg 91%
    08:00 -24°C° 0 mm 2 m/s 749 mmHg 91%
    09:00 -23°C° 0 mm 2 m/s 749 mmHg 90%
    10:00 -20°C° 0 mm 2 m/s 749 mmHg 88%
    11:00 -19°C° 0 mm 2 m/s 748 mmHg 87%
    12:00 -18°C° 0 mm 2 m/s 748 mmHg 88%
    13:00 -18°C° 0 mm 2 m/s 747 mmHg 88%
    14:00 -15°C° 0 mm 1 m/s 747 mmHg 89%
    15:00 -19°C° 0 mm 2 m/s 747 mmHg 91%
    16:00 -20°C° 0 mm 2 m/s 746 mmHg 93%
    17:00 -21°C° 0 mm 2 m/s 746 mmHg 95%
    18:00 -21°C° 0 mm 2 m/s 746 mmHg 95%
    19:00 -23°C° 0 mm 2 m/s 746 mmHg 95%
    20:00 -23°C° 0 mm 2 m/s 745 mmHg 95%
    21:00 -23°C° 0 mm 2 m/s 745 mmHg 95%
    22:00 -23°C° 0 mm 2 m/s 745 mmHg 94%
    23:00 -24°C° 0 mm 2 m/s 745 mmHg 93%
    Arată mai mult